{"data":{"norad_id":49310,"epoch":"2026-05-25T02:30:51.575040Z","epoch_age_seconds":58923,"freshness":"FRESH","line1":"1 49310U 21090AH  26145.10476360  .00000089  00000+0  18618-3 0  9997","line2":"2 49310  87.9178 279.0803 0002315  91.9645 268.1753 13.20811387226784","mean_motion":13.20811387,"eccentricity":0.0002315,"inclination_deg":87.9178,"raan_deg":279.0803,"arg_perigee_deg":91.9645,"mean_anomaly_deg":268.1753,"bstar":0.00018618,"rev_number":22678,"period_min":109.02389350767,"perigee_km":1179.8722813166,"apogee_km":1183.3724499028,"semimajor_km":7559.7593656097,"source":"CELESTRAK","updated_at":"2026-05-25T13:38:22.526440Z"}}